When you browse on this site, cookies collect data to enhance your experience and personalize the content and advertising you see.
Visit our Privacy Policy to learn more. By continuing to use the site, you agree to this use of cookies and data.
  • In Hungary
  • List of Countries
  • For 7 days
  • Water Temperature
  • Satellite Maps
  • Weather Map
  • News
  • Weather Widgets
  • user-avatar
    Login

    Hourly Weather Upland

    Today, 26 June, Wednesday

    Time Temperature Precipitation Wind Pressure Humidity
    00:00 +19°C° 0 mm 1 mps 726 mmHg 75%
    01:00 +19°C° 0 mm 1 mps 726 mmHg 75%
    02:00 +19°C° 0 mm 1 mps 726 mmHg 75%
    03:00 +19°C° 0 mm 1 mps 726 mmHg 76%
    04:00 +19°C° 0 mm 1 mps 726 mmHg 76%
    05:00 +20°C° 0 mm 1 mps 726 mmHg 72%
    06:00 +21°C° 0 mm 1 mps 726 mmHg 68%
    07:00 +22°C° 0 mm 1 mps 727 mmHg 64%
    08:00 +23°C° 0 mm 2 mps 727 mmHg 59%
    09:00 +25°C° 0 mm 2 mps 727 mmHg 53%
    10:00 +26°C° 0 mm 3 mps 727 mmHg 47%
    11:00 +27°C° 0 mm 3 mps 727 mmHg 44%
    12:00 +28°C° 0 mm 4 mps 727 mmHg 40%
    13:00 +29°C° 0 mm 4 mps 727 mmHg 37%
    14:00 +29°C° 0 mm 4 mps 727 mmHg 38%
    15:00 +28°C° 0 mm 4 mps 727 mmHg 38%
    16:00 +28°C° 0 mm 4 mps 727 mmHg 39%
    17:00 +26°C° 0 mm 4 mps 727 mmHg 44%
    18:00 +25°C° 0 mm 3 mps 727 mmHg 50%
    19:00 +23°C° 0 mm 2 mps 727 mmHg 56%
    20:00 +21°C° 0 mm 2 mps 727 mmHg 58%
    21:00 +21°C° 0 mm 2 mps 727 mmHg 61%
    22:00 +21°C° 0 mm 1 mps 728 mmHg 64%
    23:00 +21°C° 0 mm 1 mps 728 mmHg 65%

    Tomorrow, 27 June, Thursday

    Time Temperature Precipitation Wind Pressure Humidity
    00:00 +20°C° 0 mm 1 mps 727 mmHg 65%
    01:00 +20°C° 0 mm 1 mps 727 mmHg 66%
    02:00 +20°C° 0 mm 1 mps 727 mmHg 67%
    03:00 +19°C° 0 mm 1 mps 727 mmHg 68%
    04:00 +19°C° 0 mm 1 mps 727 mmHg 70%
    05:00 +20°C° 0 mm 1 mps 728 mmHg 65%
    06:00 +21°C° 0 mm 1 mps 728 mmHg 61%
    07:00 +22°C° 0 mm 1 mps 728 mmHg 57%
    08:00 +24°C° 0 mm 1 mps 728 mmHg 50%
    09:00 +26°C° 0 mm 2 mps 729 mmHg 43%
    10:00 +28°C° 0 mm 2 mps 729 mmHg 36%
    11:00 +29°C° 0 mm 3 mps 729 mmHg 32%
    12:00 +30°C° 0 mm 4 mps 729 mmHg 28%
    13:00 +32°C° 0 mm 4 mps 729 mmHg 24%
    14:00 +32°C° 0 mm 4 mps 728 mmHg 24%
    15:00 +32°C° 0 mm 4 mps 728 mmHg 24%
    16:00 +30°C° 0 mm 4 mps 727 mmHg 24%
    17:00 +29°C° 0 mm 4 mps 728 mmHg 30%
    18:00 +27°C° 0 mm 3 mps 728 mmHg 35%
    19:00 +25°C° 0 mm 2 mps 728 mmHg 40%
    20:00 +24°C° 0 mm 2 mps 728 mmHg 42%
    21:00 +24°C° 0 mm 1 mps 728 mmHg 44%
    22:00 +23°C° 0 mm 1 mps 728 mmHg 46%
    23:00 +22°C° 0 mm 1 mps 728 mmHg 48%

    Day after tomorrow, 28 June, Friday

    Time Temperature Precipitation Wind Pressure Humidity
    00:00 +22°C° 0 mm 1 mps 728 mmHg 50%
    01:00 +21°C° 0 mm 1 mps 728 mmHg 52%
    02:00 +21°C° 0 mm 1 mps 728 mmHg 53%
    03:00 +20°C° 0 mm 1 mps 727 mmHg 54%
    04:00 +18°C° 0 mm 0 mps 727 mmHg 55%
    05:00 +21°C° 0 mm 1 mps 728 mmHg 51%
    06:00 +23°C° 0 mm 1 mps 728 mmHg 46%
    07:00 +24°C° 0 mm 1 mps 728 mmHg 42%
    08:00 +26°C° 0 mm 1 mps 728 mmHg 36%
    09:00 +28°C° 0 mm 2 mps 728 mmHg 30%
    10:00 +30°C° 0 mm 2 mps 728 mmHg 25%
    11:00 +31°C° 0 mm 3 mps 728 mmHg 22%
    12:00 +33°C° 0 mm 3 mps 728 mmHg 19%
    13:00 +34°C° 0 mm 4 mps 728 mmHg 17%
    14:00 +33°C° 0 mm 4 mps 728 mmHg 17%
    15:00 +33°C° 0 mm 4 mps 727 mmHg 18%
    16:00 +32°C° 0 mm 5 mps 727 mmHg 18%
    17:00 +29°C° 0 mm 4 mps 727 mmHg 23%
    18:00 +28°C° 0 mm 3 mps 727 mmHg 27%
    19:00 +26°C° 0 mm 3 mps 727 mmHg 32%
    20:00 +25°C° 0 mm 2 mps 728 mmHg 35%
    21:00 +24°C° 0 mm 2 mps 728 mmHg 39%
    22:00 +23°C° 0 mm 1 mps 728 mmHg 42%
    23:00 +22°C° 0 mm 1 mps 728 mmHg 42%

    29 June, Saturday

    Time Temperature Precipitation Wind Pressure Humidity
    00:00 +22°C° 0 mm 1 mps 728 mmHg 41%
    01:00 +22°C° 0 mm 1 mps 728 mmHg 41%
    02:00 +22°C° 0 mm 1 mps 728 mmHg 39%
    03:00 +20°C° 0 mm 0 mps 728 mmHg 38%
    04:00 +19°C° 0 mm 0 mps 728 mmHg 36%
    05:00 +21°C° 0 mm 0 mps 728 mmHg 32%
    06:00 +24°C° 0 mm 1 mps 728 mmHg 29%
    07:00 +26°C° 0 mm 1 mps 729 mmHg 25%
    08:00 +28°C° 0 mm 1 mps 729 mmHg 21%
    09:00 +30°C° 0 mm 2 mps 729 mmHg 17%
    10:00 +33°C° 0 mm 3 mps 729 mmHg 13%
    11:00 +33°C° 0 mm 3 mps 729 mmHg 13%
    12:00 +34°C° 0 mm 3 mps 729 mmHg 12%
    13:00 +35°C° 0 mm 4 mps 728 mmHg 12%
    14:00 +34°C° 0 mm 4 mps 728 mmHg 13%
    15:00 +34°C° 0 mm 4 mps 728 mmHg 14%
    16:00 +33°C° 0 mm 5 mps 727 mmHg 15%
    17:00 +30°C° 0 mm 4 mps 727 mmHg 19%
    18:00 +28°C° 0 mm 3 mps 727 mmHg 23%
    19:00 +27°C° 0 mm 2 mps 727 mmHg 27%
    20:00 +26°C° 0 mm 2 mps 728 mmHg 29%
    21:00 +25°C° 0 mm 2 mps 728 mmHg 32%
    22:00 +24°C° 0 mm 1 mps 728 mmHg 34%
    23:00 +24°C° 0 mm 1 mps 728 mmHg 36%

    30 June, Sunday

    Time Temperature Precipitation Wind Pressure Humidity
    00:00 +23°C° 0 mm 1 mps 728 mmHg 38%
    01:00 +23°C° 0 mm 1 mps 728 mmHg 40%
    02:00 +22°C° 0 mm 1 mps 728 mmHg 40%
    03:00 +22°C° 0 mm 1 mps 728 mmHg 41%
    04:00 +20°C° 0 mm 0 mps 727 mmHg 41%
    05:00 +23°C° 0 mm 1 mps 728 mmHg 38%
    06:00 +24°C° 0 mm 1 mps 728 mmHg 35%
    07:00 +25°C° 0 mm 1 mps 728 mmHg 32%
    08:00 +27°C° 0 mm 1 mps 728 mmHg 28%
    09:00 +28°C° 0 mm 2 mps 728 mmHg 24%
    10:00 +30°C° 0 mm 3 mps 728 mmHg 21%
    11:00 +31°C° 0 mm 3 mps 728 mmHg 19%
    12:00 +33°C° 0 mm 4 mps 728 mmHg 17%
    13:00 +34°C° 0 mm 4 mps 728 mmHg 16%
    14:00 +33°C° 0 mm 4 mps 727 mmHg 17%
    15:00 +33°C° 0 mm 5 mps 727 mmHg 18%
    16:00 +32°C° 0 mm 5 mps 727 mmHg 20%
    17:00 +30°C° 0 mm 4 mps 727 mmHg 24%
    18:00 +28°C° 0 mm 3 mps 727 mmHg 29%
    19:00 +26°C° 0 mm 2 mps 727 mmHg 33%
    20:00 +25°C° 0 mm 2 mps 727 mmHg 36%
    21:00 +24°C° 0 mm 2 mps 727 mmHg 38%
    22:00 +24°C° 0 mm 1 mps 728 mmHg 40%
    23:00 +23°C° 0 mm 1 mps 728 mmHg 42%

    1 July, Monday

    Time Temperature Precipitation Wind Pressure Humidity
    00:00 +23°C° 0 mm 1 mps 727 mmHg 43%
    01:00 +22°C° 0 mm 1 mps 727 mmHg 45%
    02:00 +22°C° 0 mm 1 mps 727 mmHg 46%
    03:00 +21°C° 0 mm 1 mps 727 mmHg 48%
    04:00 +19°C° 0 mm 0 mps 727 mmHg 50%
    05:00 +22°C° 0 mm 1 mps 727 mmHg 47%
    06:00 +23°C° 0 mm 1 mps 727 mmHg 44%
    07:00 +25°C° 0 mm 1 mps 728 mmHg 41%
    08:00 +26°C° 0 mm 1 mps 728 mmHg 37%
    09:00 +28°C° 0 mm 2 mps 728 mmHg 34%
    10:00 +29°C° 0 mm 2 mps 728 mmHg 30%
    11:00 +30°C° 0 mm 3 mps 728 mmHg 29%
    12:00 +31°C° 0 mm 3 mps 727 mmHg 27%
    13:00 +33°C° 0 mm 4 mps 727 mmHg 26%
    14:00 +33°C° 0 mm 4 mps 727 mmHg 27%
    15:00 +32°C° 0 mm 4 mps 726 mmHg 27%
    16:00 +32°C° 0 mm 5 mps 726 mmHg 28%
    17:00 +29°C° 0 mm 4 mps 726 mmHg 32%
    18:00 +27°C° 0 mm 3 mps 726 mmHg 36%
    19:00 +26°C° 0 mm 2 mps 726 mmHg 40%
    20:00 +25°C° 0 mm 2 mps 726 mmHg 42%
    21:00 +24°C° 0 mm 1 mps 726 mmHg 44%
    22:00 +23°C° 0 mm 1 mps 726 mmHg 46%
    23:00 +23°C° 0 mm 1 mps 726 mmHg 47%
    Show more